Regional Weather Roundup
Issued by NWS Northern Indiana

Home | Current Version | Previous Version | Graphics & Text | Print | Product List | Glossary On
Versions: 1 2 3 4 5 6 7 8 9 10 11 12 13 14 15 16 17 18 19 20 21 22 23 24 25 26 27 28 29 30 31 32 33 34 35 36 37 38 39 40 41 42 43 44 45 46 47 48 49 50
000
ASUS43 KIWX 100200
RWRIWX

KIWX WEATHER ROUNDUP
NATIONAL WEATHER SERVICE NORTHERN INDIANA
900 PM EST TUE FEB 09 2016

NOTE: "FAIR" INDICATES FEW OR NO CLOUDS BELOW 12,000 FEET WITH NO
SIGNIFICANT WEATHER AND/OR OBSTRUCTIONS TO VISIBILITY.

* THESE STATIONS ARE NOT UNDER NWS QUALITY CONTROL. THEY ALSO MAY NOT
  REPORT WEATHER SUCH AS PRECIPITATION OR FOG.

INZ001>027-100300-
NORTHERN INDIANA

CITY           SKY/WX    TMP DP  RH WIND       PRES   REMARKS
SOUTH BEND     LGT SNOW  18  15  88 W13       29.86S FOG     WCI   5
ELKHART*       LGT SNOW  19  18  93 W16       29.85R WCI   5
GOSHEN         LGT SNOW  20  15  81 W15       29.84S WCI   6
ANGOLA*        CLOUDY    21  18  86 W10       29.78R WCI  10
FORT WAYNE     FLURRIES  20  13  74 W16       29.85S WCI   6

$$
INZ028>050-100300-
CENTRAL INDIANA

CITY           SKY/WX    TMP DP  RH WIND       PRES   REMARKS
LAFAYETTE      CLOUDY    16   9  74 W13       29.96R WCI   2
KOKOMO*        CLOUDY    18   9  68 W17       29.90S WCI   2
MUNCIE*        CLOUDY    18  10  71 W13       29.88S WCI   5
INDIANAPOLIS   FLURRIES  16   9  74 W15       29.94S WCI   1

$$
MIZ043>046-050>051-056>058-064>065-071>073-077>080-100300-
SOUTHWEST LOWER MICHIGAN

CITY           SKY/WX    TMP DP  RH WIND       PRES   REMARKS
BATTLE CREEK   CLOUDY    23  16  74 NW12      29.77S WCI  12
BENTON HARBOR  SNOW      22  19  89 NW13G20   29.85S VSB 1/2 WCI  10
COLDWATER*     LGT SNOW  23  20  87 W8        29.77S WCI  14
HILLSDALE*     FLURRIES  23  18  81 NW16      29.73R WCI   9
HOLLAND        LGT SNOW  23  19  85 NW8G18    29.81S FOG     WCI  14
GRAND RAPIDS   LGT SNOW  23  17  78 NW14      29.77S WCI  11
KALAMAZOO      LGT SNOW  23  17  78 NW12      29.79S WCI  12
STURGIS*       LGT SNOW  21  19  90 W8        29.79S WCI  11
THREE RIVERS*  LGT SNOW  23  20  88 W12       29.81S WCI  11

$$
OHZ001>008-015>018-024>025-100300-
NORTHWEST OHIO

CITY           SKY/WX    TMP DP  RH WIND       PRES   REMARKS
DEFIANCE       CLOUDY    25  16  68 W10G21    29.80S WCI  15
FINDLAY        CLOUDY    26  17  68 W22       29.77R WCI  12
TOLEDO EXPRESS CLOUDY    26  18  71 W12       29.75R WCI  16
TOLEDO METCALF CLOUDY    27  18  69 W17       29.75R WCI  14
LIMA           FLURRIES  22  19  89 W15       29.80R WCI   9

$$
AND FOR LAKE MICHIGAN COASTAL AND OPEN LAKE BUOY OBSERVATIONS

STATION/POSITION TEMP    WIND        PRES    VSBY  WAVE
                 AIR SEA DIR/SP/G                  HT/PER
                 (F)     (DEG/KT/KT) (MB)    (MI)  (FT/S)
CALUMET HARBOR    17     280/ 11/ 16 1013.1R
MICHIGAN CITY     19     260/ 23/ 26   N/A
BURNS HARBOR      20     310/ 18/ 21 1013.5S
SAINT JOSEPH      24     280/ 19/ 23 1011.9S

$$
&&



USA.gov is the U.S. government's official web portal to all federal, state and local government web resources and services.